Regional Weather Roundup
Issued by NWS

Home | Current Version | Previous Version | Text Only | Print | Product List | Glossary On
Versions: 1 2 3 4 5 6 7 8 9 10 11 12 13 14 15 16 17 18 19 20 21 22 23 24 25 26 27 28 29 30 31 32 33 34 35 36 37 38 39 40 41 42 43 44 45 46 47 48 49 50
000
ASUS43 KLMK 230702
RWRKY
KENTUCKY REGIONAL WEATHER ROUNDUP
NATIONAL WEATHER SERVICE LOUISVILLE KY
300 AM EDT SAT AUG 23 2014

NOTE "FAIR" INDICATES FEW OR NO CLOUDS BELOW 12,000 FEET
WITH NO SIGNIFICANT WEATHER AND/OR OBSTRUCTIONS TO VISIBILITY.

KYZ001>023-026-027-061>063-070>075-230800-
WESTERN AND SOUTH CENTRAL KENTUCKY

CITY           SKY/WX    TMP DP  RH WIND       PRES   REMARKS
PADUCAH        CLEAR     81  75  82 SW5       29.96S
HENDERSON      MOCLDY    77  72  83 SE10      29.97F
OWENSBORO      TSTM      73  73 100 S5        29.99F FOG
HOPKINSVILLE   MOCLDY    78  78 100 S3        29.99F
BOWLING GREEN  CLOUDY    79  74  84 CALM      30.00F
GLASGOW        MOCLDY    75  75  99 CALM      30.00F
$$

KYZ024-025-028>034-038-045-046-053-230800-
NORTH CENTRAL KENTUCKY

CITY           SKY/WX    TMP DP  RH WIND       PRES   REMARKS
LOUISVILLE/SDF MOCLDY    74  72  93 W3        29.98F
LOUISVILLE/LOU MOCLDY    73  72  96 CALM      29.99F
FORT KNOX      CLOUDY    72  72 100 CALM      29.99F
$$

KYZ035>037-039>044-047>052-055>060-089>105-230800-
NORTHEAST KENTUCKY

CITY           SKY/WX    TMP DP  RH WIND       PRES   REMARKS
LEXINGTON      PTCLDY    72  69  90 CALM      30.01F
COVINGTON      PTCLDY    74  71  91 CALM      29.99  FOG
FRANKFORT      PTCLDY    70  69  97 CALM      29.99F
$$

KYZ054-064>069-076>088-106>120-230800-
SOUTHEAST KENTUCKY

CITY           SKY/WX    TMP DP  RH WIND       PRES   REMARKS
JACKSON        MOCLDY    71  69  93 CALM      30.03F
LONDON         CLOUDY    77  72  84 W3        30.03S
SOMERSET       PTCLDY    73  72  94 NE3       30.03S
MIDDLESBORO    MOCLDY    72  71  96 CALM      30.03S
MONTICELLO     PTSUNNY   73  73 100 CALM      30.04S FOG
$$




USA.gov is the U.S. government's official web portal to all federal, state and local government web resources and services.